FENGYUN 1C DEB, 30314

Orbit data source: Space-Track

FENGYUN 1C DEB, 30314 is space debris in SSO originally from a launch on Mon, 10 May 1999 UTC launched from the Taiyaun Space Center, China (TSC). Fengyun 1C debris stems from the Chinese weather satellite Fengyun-1C, which was intentionally destroyed by a Chinese anti-satellite missile in 2007. This event dramatically increased the amount of space debris, with thousands of trackable fragments posing hazards to satellites and human spaceflight. The Fengyun 1C debris cloud has become a focal point in discussions about space sustainability and the need for international regulations to prevent the creation of new debris.

Loading next visibility...
Identifier
30314, 1999-025AAB
Orbit
SSO
Country
Flag of CNCN / PRC
Related business
Manufacturer
Unknown
Mission
Spacecraft
Bus & Motor
Unknown
Mass
Unknown
Launch date (UTC)
1999-05-10 (27 years ago)
Launch vehicle
Unknown
Launch site
Taiyaun Space Center, China (TSC)
Object type
Payload
Rocket body
Debris
Shape & HBR
Unknown shape, 0.1 m
Radar Cross Section
Small (<0.1 m²)

Expand to show TLE details & history
Last TLE update: 1 day ago

TLE from 1 day ago
0 FENGYUN 1C DEB
1 30314U 99025AAB 26237.44642484  .00000747  00000-0  47096-3 0  9999
2 30314  98.3980  53.0445 0142673 356.1476   3.8581 14.02086618996911
Epoch: 2026-08-25T10:42Z
TLE epoch observation values (Epoch: 2026-08-25T10:42:51.106Z)
Latitude
-0.00006°
Longitude
-81.38209°
Altitude
786.052 km
Speed
7.514 km/s
True Right ascension
03h 32m 10s
True Declination
0° 00' 00"
Sunlit
Object was in daylight at epoch
Visualization orbit readout
Latitude
Unknown
Longitude
Unknown
Altitude
Unknown
Speed
Unknown
Apparent Right ascension
Unknown
Apparent Declination
Unknown
Sunlit
N/A
Visualization observer readout
Local Sidereal Time
01:47:21
Azimuth
Unknown
Elevation
Unknown
Doppler factor
Unknown
Orbital elements
Apogee altitude
987.353 km
Perigee altitude
780.138 km
Semi-major axis
7,261.883 km
Eccentricity
0.01427
Inclination
98.398°
RAAN
53.0445°
Arg. of periapsis
356.1476°
True anomaly
3.9701°
Mean anomaly
3.8581°
Eccentric anomaly
3.9139°
Mean motion
3.50727 °/min
Orbital period
102.64 mins
BSTAR
0.00047096
Loading maneuver chart data...
Computing Atmospheric mass density...
Loading historical data...
Loading historical data...
Loading historical data...
Loading historical data...
Loading historical data...
Loading historical data...
Loading historical data...

Documentation

Showing up to 5 results
|